Time,TemperatureF,DewpointF,PressureIn,WindDirection,WindDirectionDegrees,WindSpeedMPH,WindSpeedGustMPH,Humidity,HourlyPrecipIn,Conditions,Clouds,dailyrainin,SoftwareType,DateUTC
2013-07-18 00:02:00,75.2,70.0,30.15,SE,135,0.0,0.0,84,0.00,,,0.03,meteohub,2013-07-18 05:02:00,
2013-07-18 00:07:00,75.2,70.0,30.15,SE,135,0.0,0.0,84,0.00,,,0.00,meteohub,2013-07-18 05:07:00,
2013-07-18 00:12:00,75.2,70.0,30.15,East,90,0.0,0.0,84,0.00,,,0.00,meteohub,2013-07-18 05:12:00,
2013-07-18 00:17:00,75.4,70.5,30.15,ESE,113,0.0,0.0,85,0.00,,,0.00,meteohub,2013-07-18 05:17:00,
2013-07-18 00:22:00,75.6,70.7,30.15,ESE,113,0.0,0.0,85,0.00,,,0.00,meteohub,2013-07-18 05:22:00,
2013-07-18 00:27:00,76.1,70.9,30.15,ESE,113,0.0,0.0,84,0.00,,,0.00,meteohub,2013-07-18 05:27:00,
2013-07-18 00:32:00,76.3,70.7,30.14,ESE,113,0.0,0.0,83,0.00,,,0.00,meteohub,2013-07-18 05:32:00,
2013-07-18 00:37:00,76.6,71.1,30.14,NNW,338,0.0,0.0,83,0.00,,,0.00,meteohub,2013-07-18 05:37:00,
2013-07-18 00:42:00,77.0,71.1,30.14,ESE,113,0.0,0.0,82,0.00,,,0.00,meteohub,2013-07-18 05:42:00,
2013-07-18 00:47:00,77.0,71.1,30.14,ESE,113,0.0,0.0,82,0.00,,,0.00,meteohub,2013-07-18 05:47:00,
2013-07-18 00:52:00,77.2,70.9,30.14,ESE,113,0.0,0.0,81,0.00,,,0.00,meteohub,2013-07-18 05:52:00,
2013-07-18 00:57:00,77.2,70.9,30.14,ESE,113,0.0,0.0,81,0.00,,,0.00,meteohub,2013-07-18 05:57:00,
2013-07-18 01:02:00,77.0,70.3,30.14,ESE,113,0.0,0.0,80,0.00,,,0.00,meteohub,2013-07-18 06:02:00,
2013-07-18 01:07:00,77.0,70.3,30.14,ESE,113,0.0,0.0,80,0.00,,,0.00,meteohub,2013-07-18 06:07:00,
2013-07-18 01:12:00,77.0,70.3,30.14,SE,135,0.0,0.0,80,0.00,,,0.00,meteohub,2013-07-18 06:12:00,
2013-07-18 01:17:00,76.8,70.5,30.14,SE,135,0.0,0.0,81,0.00,,,0.00,meteohub,2013-07-18 06:17:00,
2013-07-18 01:22:00,76.6,70.3,30.14,SE,135,0.0,0.0,81,0.00,,,0.00,meteohub,2013-07-18 06:22:00,
2013-07-18 01:27:00,76.5,70.2,30.14,SE,135,0.0,0.0,81,0.00,,,0.00,meteohub,2013-07-18 06:27:00,
2013-07-18 01:32:00,76.3,70.0,30.14,ESE,113,0.0,0.0,81,0.00,,,0.00,meteohub,2013-07-18 06:32:00,
2013-07-18 01:37:00,75.9,69.6,30.15,ESE,113,0.0,0.0,81,0.00,,,0.00,meteohub,2013-07-18 06:37:00,
2013-07-18 01:42:00,75.7,69.4,30.15,SE,135,0.0,0.0,81,0.00,,,0.00,meteohub,2013-07-18 06:42:00,
2013-07-18 01:47:00,75.2,69.3,30.15,SE,135,0.0,0.0,82,0.00,,,0.00,meteohub,2013-07-18 06:47:00,
2013-07-18 01:52:00,75.4,69.4,30.14,SE,135,0.0,0.0,82,0.00,,,0.00,meteohub,2013-07-18 06:52:00,
2013-07-18 01:57:00,75.4,69.4,30.14,SSE,158,0.0,0.0,82,0.00,,,0.00,meteohub,2013-07-18 06:57:00,
2013-07-18 02:02:00,75.2,69.3,30.14,SE,135,0.0,0.0,82,0.00,,,0.00,meteohub,2013-07-18 07:02:00,
2013-07-18 02:07:00,75.2,69.3,30.14,SE,135,0.0,0.0,82,0.00,,,0.00,meteohub,2013-07-18 07:07:00,
2013-07-18 02:12:00,75.4,69.4,30.14,SE,135,0.0,0.0,82,0.00,,,0.00,meteohub,2013-07-18 07:12:00,
2013-07-18 02:17:00,75.2,69.3,30.14,SE,135,0.0,0.0,82,0.00,,,0.00,meteohub,2013-07-18 07:17:00,
2013-07-18 02:22:00,75.4,69.4,30.14,SE,135,0.0,0.0,82,0.00,,,0.00,meteohub,2013-07-18 07:22:00,
2013-07-18 02:27:00,75.4,69.4,30.14,SE,135,0.0,0.0,82,0.00,,,0.00,meteohub,2013-07-18 07:27:00,
2013-07-18 02:32:00,75.4,69.1,30.14,SE,135,0.0,0.0,81,0.00,,,0.00,meteohub,2013-07-18 07:32:00,
2013-07-18 02:37:00,75.6,69.3,30.14,SE,135,0.0,0.0,81,0.00,,,0.00,meteohub,2013-07-18 07:37:00,
2013-07-18 02:42:00,75.6,69.3,30.14,SE,135,0.0,0.0,81,0.00,,,0.00,meteohub,2013-07-18 07:42:00,
2013-07-18 02:47:00,75.4,69.1,30.14,South,180,0.0,0.0,81,0.00,,,0.00,meteohub,2013-07-18 07:47:00,
2013-07-18 02:52:00,75.2,68.9,30.14,South,180,0.0,0.0,81,0.00,,,0.00,meteohub,2013-07-18 07:52:00,
2013-07-18 02:57:00,75.0,69.1,30.14,South,180,0.0,0.0,82,0.00,,,0.00,meteohub,2013-07-18 07:57:00,
2013-07-18 03:02:00,74.8,68.5,30.14,South,180,0.0,0.0,81,0.00,,,0.00,meteohub,2013-07-18 08:02:00,
2013-07-18 03:07:00,74.5,68.2,30.14,South,180,0.0,0.0,81,0.00,,,0.00,meteohub,2013-07-18 08:07:00,
2013-07-18 03:12:00,74.1,68.2,30.13,ESE,113,0.0,0.0,82,0.00,,,0.00,meteohub,2013-07-18 08:12:00,
2013-07-18 03:17:00,73.9,68.2,30.13,South,180,0.0,0.0,82,0.00,,,0.00,meteohub,2013-07-18 08:17:00,
2013-07-18 03:22:00,73.8,68.0,30.13,South,180,0.0,0.0,82,0.00,,,0.00,meteohub,2013-07-18 08:22:00,
2013-07-18 03:27:00,73.6,68.2,30.13,South,180,0.0,0.0,83,0.00,,,0.00,meteohub,2013-07-18 08:27:00,
2013-07-18 03:32:00,73.2,67.8,30.12,South,180,0.0,0.0,83,0.00,,,0.00,meteohub,2013-07-18 08:32:00,
2013-07-18 03:37:00,73.0,67.6,30.12,SSE,158,0.0,0.0,83,0.00,,,0.00,meteohub,2013-07-18 08:37:00,
2013-07-18 03:43:00,72.9,67.8,30.12,South,180,0.0,0.0,84,0.00,,,0.00,meteohub,2013-07-18 08:43:00,
2013-07-18 03:48:00,72.7,67.6,30.12,South,180,0.0,0.0,84,0.00,,,0.00,meteohub,2013-07-18 08:48:00,
2013-07-18 03:53:00,72.5,67.5,30.11,South,180,0.0,0.0,84,0.00,,,0.00,meteohub,2013-07-18 08:53:00,
2013-07-18 03:58:00,72.5,67.5,30.11,South,180,0.0,0.0,84,0.00,,,0.00,meteohub,2013-07-18 08:58:00,
2013-07-18 04:03:00,72.1,67.1,30.11,South,180,0.0,0.0,84,0.00,,,0.00,meteohub,2013-07-18 09:03:00,
2013-07-18 04:08:00,72.1,67.5,30.11,South,180,0.0,0.0,85,0.00,,,0.00,meteohub,2013-07-18 09:08:00,
2013-07-18 04:13:00,71.8,67.1,30.09,South,180,0.0,0.0,85,0.00,,,0.00,meteohub,2013-07-18 09:13:00,
2013-07-18 04:18:00,71.6,66.9,30.09,South,180,0.0,0.0,85,0.00,,,0.00,meteohub,2013-07-18 09:18:00,
2013-07-18 04:23:00,71.6,67.1,30.09,South,180,0.0,0.0,86,0.00,,,0.00,meteohub,2013-07-18 09:23:00,
2013-07-18 04:28:00,71.8,67.3,30.09,South,180,0.0,0.0,86,0.00,,,0.00,meteohub,2013-07-18 09:28:00,
2013-07-18 04:33:00,71.4,67.1,30.12,SSE,158,0.0,0.0,86,0.00,,,0.00,meteohub,2013-07-18 09:33:00,
2013-07-18 04:38:00,71.4,67.1,30.12,SSE,158,0.0,0.0,86,0.00,,,0.00,meteohub,2013-07-18 09:38:00,
2013-07-18 04:43:00,71.4,67.1,30.12,South,180,0.0,0.0,86,0.00,,,0.00,meteohub,2013-07-18 09:43:00,
2013-07-18 04:48:00,71.1,66.7,30.12,South,180,0.0,0.0,86,0.00,,,0.00,meteohub,2013-07-18 09:48:00,
2013-07-18 04:53:00,71.1,66.7,30.12,SSE,158,0.0,0.0,86,0.00,,,0.00,meteohub,2013-07-18 09:53:00,
2013-07-18 04:58:00,71.1,66.9,30.12,SSE,158,0.0,0.0,87,0.00,,,0.00,meteohub,2013-07-18 09:58:00,
2013-07-18 05:03:00,70.9,66.7,30.12,South,180,0.0,0.0,87,0.00,,,0.00,meteohub,2013-07-18 10:03:00,
2013-07-18 05:08:00,70.9,66.7,30.12,South,180,0.0,0.0,87,0.00,,,0.00,meteohub,2013-07-18 10:08:00,
2013-07-18 05:13:00,70.7,66.6,30.12,SSE,158,0.0,0.0,87,0.00,,,0.00,meteohub,2013-07-18 10:13:00,
2013-07-18 05:18:00,70.5,66.4,30.12,SSE,158,0.0,0.0,87,0.00,,,0.00,meteohub,2013-07-18 10:18:00,
2013-07-18 05:23:00,70.7,66.6,30.12,South,180,0.0,0.0,87,0.00,,,0.00,meteohub,2013-07-18 10:23:00,
2013-07-18 05:28:00,70.5,66.4,30.12,South,180,0.0,0.0,87,0.00,,,0.00,meteohub,2013-07-18 10:28:00,
2013-07-18 05:33:00,70.3,66.2,30.12,South,180,0.0,0.0,87,0.00,,,0.00,meteohub,2013-07-18 10:33:00,
2013-07-18 05:38:00,70.3,66.2,30.12,SSE,158,0.0,0.0,87,0.00,,,0.00,meteohub,2013-07-18 10:38:00,
2013-07-18 05:43:00,70.3,66.2,30.12,SSE,158,0.0,0.0,87,0.00,,,0.00,meteohub,2013-07-18 10:43:00,
2013-07-18 05:48:00,70.2,66.4,30.12,SSE,158,0.0,0.0,88,0.00,,,0.00,meteohub,2013-07-18 10:48:00,
2013-07-18 05:53:00,70.2,66.4,30.12,SSE,158,0.0,0.0,88,0.00,,,0.00,meteohub,2013-07-18 10:53:00,
2013-07-18 05:58:00,70.3,66.6,30.12,SSE,158,0.0,0.0,88,0.00,,,0.00,meteohub,2013-07-18 10:58:00,
2013-07-18 06:03:00,70.2,66.4,30.12,SSE,158,0.0,0.0,88,0.00,,,0.00,meteohub,2013-07-18 11:03:00,
2013-07-18 06:08:00,70.0,66.2,30.12,South,180,0.0,0.0,88,0.00,,,0.00,meteohub,2013-07-18 11:08:00,
2013-07-18 06:13:00,69.8,66.0,30.14,South,180,0.0,0.0,88,0.00,,,0.00,meteohub,2013-07-18 11:13:00,
2013-07-18 06:18:00,70.0,66.2,30.14,SSE,158,0.0,0.0,88,0.00,,,0.00,meteohub,2013-07-18 11:18:00,
2013-07-18 06:23:00,69.6,65.8,30.14,SSE,158,0.0,0.0,88,0.00,,,0.00,meteohub,2013-07-18 11:23:00,
2013-07-18 06:28:00,69.6,65.8,30.14,SSE,158,0.0,0.0,88,0.00,,,0.00,meteohub,2013-07-18 11:28:00,
2013-07-18 06:33:00,69.6,65.8,30.14,SSE,158,0.0,0.0,88,0.00,,,0.00,meteohub,2013-07-18 11:33:00,
2013-07-18 06:38:00,69.6,65.8,30.14,SSE,158,0.0,0.0,88,0.00,,,0.00,meteohub,2013-07-18 11:38:00,
2013-07-18 06:43:00,69.6,66.2,30.14,SSE,158,0.0,0.0,89,0.00,,,0.00,meteohub,2013-07-18 11:43:00,
2013-07-18 06:48:00,69.4,66.0,30.14,South,180,0.0,0.0,89,0.00,,,0.00,meteohub,2013-07-18 11:48:00,
2013-07-18 06:53:00,69.4,66.0,30.14,South,180,0.0,0.0,89,0.00,,,0.00,meteohub,2013-07-18 11:53:00,
2013-07-18 06:58:00,69.4,66.0,30.14,South,180,0.0,0.0,89,0.00,,,0.00,meteohub,2013-07-18 11:58:00,
2013-07-18 07:03:00,69.6,66.2,30.14,South,180,0.0,0.0,89,0.00,,,0.00,meteohub,2013-07-18 12:03:00,
2013-07-18 07:08:00,69.6,66.2,30.14,South,180,0.0,0.0,89,0.00,,,0.00,meteohub,2013-07-18 12:08:00,
2013-07-18 07:13:00,69.8,66.7,30.14,South,180,0.0,0.0,90,0.00,,,0.00,meteohub,2013-07-18 12:13:00,
2013-07-18 07:18:00,70.0,66.9,30.14,South,180,0.0,0.0,90,0.00,,,0.00,meteohub,2013-07-18 12:18:00,
2013-07-18 07:23:00,70.0,66.9,30.14,South,180,0.0,0.0,90,0.00,,,0.00,meteohub,2013-07-18 12:23:00,
2013-07-18 07:28:00,70.3,67.3,30.14,South,180,0.0,0.0,90,0.00,,,0.00,meteohub,2013-07-18 12:28:00,
2013-07-18 07:33:00,70.7,67.6,30.14,South,180,0.0,0.0,90,0.00,,,0.00,meteohub,2013-07-18 12:33:00,
2013-07-18 07:38:00,70.7,67.6,30.14,South,180,0.0,0.0,90,0.00,,,0.00,meteohub,2013-07-18 12:38:00,
2013-07-18 07:43:00,71.1,68.0,30.14,South,180,0.0,0.0,90,0.00,,,0.00,meteohub,2013-07-18 12:43:00,
2013-07-18 07:48:00,71.4,68.4,30.14,South,180,0.0,0.0,90,0.00,,,0.00,meteohub,2013-07-18 12:48:00,
2013-07-18 07:54:00,71.6,68.5,30.14,WSW,248,0.0,0.0,90,0.00,,,0.00,meteohub,2013-07-18 12:54:00,
2013-07-18 07:59:00,72.1,69.1,30.14,WSW,248,0.0,0.0,90,0.00,,,0.00,meteohub,2013-07-18 12:59:00,
2013-07-18 08:04:00,72.5,69.4,30.14,SW,225,0.0,0.0,90,0.00,,,0.00,meteohub,2013-07-18 13:04:00,
2013-07-18 08:09:00,73.0,70.0,30.14,SSW,203,0.0,0.0,90,0.00,,,0.00,meteohub,2013-07-18 13:09:00,
2013-07-18 08:14:00,73.6,70.2,30.14,SW,225,0.0,0.0,89,0.00,,,0.00,meteohub,2013-07-18 13:14:00,
2013-07-18 08:19:00,73.9,70.5,30.13,South,180,0.0,0.0,89,0.00,,,0.00,meteohub,2013-07-18 13:19:00,
2013-07-18 08:24:00,74.5,70.7,30.13,SSW,203,0.0,0.0,88,0.00,,,0.00,meteohub,2013-07-18 13:24:00,
2013-07-18 08:29:00,75.0,70.9,30.13,SSW,203,0.0,0.0,87,0.00,,,0.00,meteohub,2013-07-18 13:29:00,
2013-07-18 08:34:00,75.6,71.1,30.13,SW,225,0.0,0.0,86,0.00,,,0.00,meteohub,2013-07-18 13:34:00,
2013-07-18 08:39:00,75.9,71.4,30.12,WSW,248,0.0,0.0,86,0.00,,,0.00,meteohub,2013-07-18 13:39:00,
2013-07-18 08:44:00,76.5,71.6,30.12,SW,225,0.0,0.0,85,0.00,,,0.00,meteohub,2013-07-18 13:44:00,
2013-07-18 08:49:00,76.5,71.2,30.12,SSW,203,0.0,0.0,84,0.00,,,0.00,meteohub,2013-07-18 13:49:00,
2013-07-18 08:54:00,77.0,71.4,30.12,SSW,203,0.0,0.0,83,0.00,,,0.00,meteohub,2013-07-18 13:54:00,
2013-07-18 08:59:00,77.4,71.8,30.12,SW,225,0.0,0.0,83,0.00,,,0.00,meteohub,2013-07-18 13:59:00,
2013-07-18 09:04:00,78.1,72.5,30.12,South,180,0.0,0.0,83,0.00,,,0.00,meteohub,2013-07-18 14:04:00,
2013-07-18 09:09:00,78.1,71.8,30.12,South,180,0.0,0.0,81,0.00,,,0.00,meteohub,2013-07-18 14:09:00,
2013-07-18 09:14:00,78.8,72.5,30.12,South,180,0.0,0.0,81,0.00,,,0.00,meteohub,2013-07-18 14:14:00,
2013-07-18 09:19:00,78.8,72.1,30.12,South,180,0.0,0.0,80,0.00,,,0.00,meteohub,2013-07-18 14:19:00,
2013-07-18 09:24:00,79.3,72.3,30.12,SW,225,0.0,0.0,79,0.00,,,0.00,meteohub,2013-07-18 14:24:00,
2013-07-18 09:29:00,79.7,73.0,30.12,West,270,0.0,0.0,80,0.00,,,0.00,meteohub,2013-07-18 14:29:00,
2013-07-18 09:34:00,79.9,72.9,30.12,South,180,0.0,0.0,79,0.00,,,0.00,meteohub,2013-07-18 14:34:00,
2013-07-18 09:39:00,80.2,73.0,30.12,South,180,0.0,0.0,79,0.00,,,0.00,meteohub,2013-07-18 14:39:00,
2013-07-18 09:44:00,80.2,73.0,30.12,SSW,203,0.0,0.0,79,0.00,,,0.00,meteohub,2013-07-18 14:44:00,
2013-07-18 09:49:00,80.2,72.7,30.12,WNW,293,0.0,0.0,78,0.00,,,0.00,meteohub,2013-07-18 14:49:00,
2013-07-18 09:54:00,80.8,73.2,30.11,NNE,23,0.0,0.0,78,0.00,,,0.00,meteohub,2013-07-18 14:54:00,
2013-07-18 09:59:00,80.6,73.0,30.11,West,270,0.0,0.0,78,0.00,,,0.00,meteohub,2013-07-18 14:59:00,
2013-07-18 10:04:00,81.1,73.6,30.11,SW,225,0.0,0.0,78,0.00,,,0.00,meteohub,2013-07-18 15:04:00,
2013-07-18 10:09:00,81.3,73.8,30.11,South,180,0.0,0.0,78,0.00,,,0.00,meteohub,2013-07-18 15:09:00,
2013-07-18 10:14:00,81.9,74.3,30.09,South,180,0.0,0.0,78,0.00,,,0.00,meteohub,2013-07-18 15:14:00,
2013-07-18 10:19:00,81.9,73.9,30.09,WSW,248,0.0,0.0,77,0.00,,,0.00,meteohub,2013-07-18 15:19:00,
2013-07-18 10:24:00,82.0,73.8,30.09,WSW,248,0.0,0.0,76,0.00,,,0.00,meteohub,2013-07-18 15:24:00,
2013-07-18 10:29:00,82.4,73.8,30.09,WSW,248,0.0,0.0,75,0.00,,,0.00,meteohub,2013-07-18 15:29:00,
2013-07-18 10:34:00,82.6,73.8,30.09,SSW,203,0.0,0.0,75,0.00,,,0.00,meteohub,2013-07-18 15:34:00,
2013-07-18 10:39:00,82.9,73.8,30.09,SSW,203,0.0,0.0,74,0.00,,,0.00,meteohub,2013-07-18 15:39:00,
2013-07-18 10:44:00,83.1,73.6,30.09,South,180,0.0,0.0,73,0.00,,,0.00,meteohub,2013-07-18 15:44:00,
2013-07-18 10:49:00,83.3,73.8,30.09,SW,225,0.0,0.0,73,0.00,,,0.00,meteohub,2013-07-18 15:49:00,
2013-07-18 10:54:00,83.7,74.1,30.09,West,270,0.0,0.0,73,0.00,,,0.00,meteohub,2013-07-18 15:54:00,
2013-07-18 10:59:00,83.5,73.6,30.09,WSW,248,0.0,0.0,72,0.00,,,0.00,meteohub,2013-07-18 15:59:00,
2013-07-18 11:04:00,84.0,73.9,30.09,SSW,203,0.0,0.0,72,0.00,,,0.00,meteohub,2013-07-18 16:04:00,
2013-07-18 11:09:00,84.0,73.6,30.09,WSW,248,0.0,0.0,71,0.00,,,0.00,meteohub,2013-07-18 16:09:00,
2013-07-18 11:10:00,84.0,73.6,30.09,WSW,248,0.0,0.0,71,0.00,,,0.00,meteohub,2013-07-18 16:10:00,
2013-07-18 11:15:00,84.2,73.8,30.09,WNW,293,0.0,0.0,71,0.00,,,0.00,meteohub,2013-07-18 16:15:00,
2013-07-18 11:20:00,84.4,73.6,30.09,SW,225,0.0,0.0,70,0.00,,,0.00,meteohub,2013-07-18 16:20:00,
2013-07-18 11:25:00,84.6,73.2,30.09,NW,315,0.0,0.0,69,0.00,,,0.00,meteohub,2013-07-18 16:25:00,
2013-07-18 11:30:00,84.6,73.2,30.09,West,270,0.0,0.0,69,0.00,,,0.00,meteohub,2013-07-18 16:30:00,
2013-07-18 11:35:00,84.7,73.4,30.08,SW,225,0.0,0.0,69,0.00,,,0.00,meteohub,2013-07-18 16:35:00,
2013-07-18 11:40:00,84.9,73.6,30.08,WSW,248,0.0,0.0,69,0.00,,,0.00,meteohub,2013-07-18 16:40:00,
2013-07-18 11:45:00,84.7,73.0,30.08,NW,315,0.0,0.0,68,0.00,,,0.00,meteohub,2013-07-18 16:45:00,
2013-07-18 11:50:00,84.9,73.2,30.08,West,270,0.0,0.0,68,0.00,,,0.00,meteohub,2013-07-18 16:50:00,
2013-07-18 11:55:00,84.9,73.2,30.09,South,180,0.0,0.0,68,0.00,,,0.00,meteohub,2013-07-18 16:55:00,
2013-07-18 12:00:00,85.3,73.6,30.09,WNW,293,0.0,0.0,68,0.00,,,0.00,meteohub,2013-07-18 17:00:00,
2013-07-18 12:05:00,85.3,73.6,30.09,NW,315,0.0,0.0,68,0.00,,,0.00,meteohub,2013-07-18 17:05:00,
2013-07-18 12:10:00,85.3,73.6,30.09,NW,315,0.0,0.0,68,0.00,,,0.00,meteohub,2013-07-18 17:10:00,
2013-07-18 12:15:00,85.8,73.9,30.07,South,180,0.0,0.0,68,0.00,,,0.00,meteohub,2013-07-18 17:15:00,
2013-07-18 12:20:00,85.8,73.9,30.07,WSW,248,0.0,0.0,68,0.00,,,0.00,meteohub,2013-07-18 17:20:00,
2013-07-18 12:25:00,86.0,73.2,30.07,SW,225,0.0,0.0,66,0.00,,,0.00,meteohub,2013-07-18 17:25:00,
2013-07-18 12:30:00,86.4,73.6,30.07,SW,225,0.0,0.0,66,0.00,,,0.00,meteohub,2013-07-18 17:30:00,
2013-07-18 12:35:00,86.4,73.6,30.10,South,180,0.0,0.0,66,0.00,,,0.00,meteohub,2013-07-18 17:35:00,
2013-07-18 12:40:00,86.5,73.8,30.10,South,180,0.0,0.0,66,0.00,,,0.00,meteohub,2013-07-18 17:40:00,
2013-07-18 12:45:00,86.5,73.4,30.10,WSW,248,0.0,0.0,65,0.00,,,0.00,meteohub,2013-07-18 17:45:00,
2013-07-18 12:50:00,86.9,73.8,30.10,SSW,203,0.0,0.0,65,0.00,,,0.00,meteohub,2013-07-18 17:50:00,
2013-07-18 12:55:00,86.9,73.2,30.09,NW,315,0.0,0.0,64,0.00,,,0.00,meteohub,2013-07-18 17:55:00,
2013-07-18 13:00:00,86.7,73.0,30.09,West,270,0.0,0.0,64,0.00,,,0.00,meteohub,2013-07-18 18:00:00,
2013-07-18 13:05:00,86.7,73.0,30.09,WSW,248,0.0,0.0,64,0.00,,,0.00,meteohub,2013-07-18 18:05:00,
2013-07-18 13:10:00,86.9,73.2,30.09,South,180,0.0,0.0,64,0.00,,,0.00,meteohub,2013-07-18 18:10:00,
2013-07-18 13:15:00,86.9,73.2,30.07,SSW,203,0.0,0.0,64,0.00,,,0.00,meteohub,2013-07-18 18:15:00,
2013-07-18 13:20:00,87.1,72.9,30.06,WSW,248,0.0,0.0,63,0.00,,,0.00,meteohub,2013-07-18 18:20:00,
2013-07-18 13:25:00,87.3,73.0,30.06,SSW,203,0.0,0.0,63,0.00,,,0.00,meteohub,2013-07-18 18:25:00,
2013-07-18 13:30:00,87.4,73.2,30.06,ESE,113,0.0,0.0,63,0.00,,,0.00,meteohub,2013-07-18 18:30:00,
2013-07-18 13:35:00,87.6,73.4,30.05,SW,225,0.0,0.0,63,0.00,,,0.00,meteohub,2013-07-18 18:35:00,
2013-07-18 13:40:00,87.8,73.6,30.05,West,270,0.0,0.0,63,0.00,,,0.00,meteohub,2013-07-18 18:40:00,
2013-07-18 13:45:00,88.0,73.4,30.05,SW,225,0.0,0.0,62,0.00,,,0.00,meteohub,2013-07-18 18:45:00,
2013-07-18 13:50:00,87.8,72.7,30.05,ESE,113,0.0,0.0,61,0.00,,,0.00,meteohub,2013-07-18 18:50:00,
2013-07-18 13:55:00,88.2,73.4,30.04,WSW,248,0.0,0.0,62,0.00,,,0.00,meteohub,2013-07-18 18:55:00,
2013-07-18 14:00:00,88.0,72.9,30.04,SW,225,0.0,0.0,61,0.00,,,0.00,meteohub,2013-07-18 19:00:00,
2013-07-18 14:05:00,88.0,73.4,30.04,SSW,203,0.0,0.0,62,0.00,,,0.00,meteohub,2013-07-18 19:05:00,
2013-07-18 14:10:00,87.8,72.7,30.04,SW,225,0.0,0.0,61,0.00,,,0.00,meteohub,2013-07-18 19:10:00,
2013-07-18 14:15:00,87.8,72.7,30.02,South,180,0.0,0.0,61,0.00,,,0.00,meteohub,2013-07-18 19:15:00,
2013-07-18 14:20:00,88.0,72.9,30.02,NW,315,0.0,0.0,61,0.00,,,0.00,meteohub,2013-07-18 19:20:00,
2013-07-18 14:25:00,88.2,72.5,30.02,SSE,158,0.0,0.0,60,0.00,,,0.00,meteohub,2013-07-18 19:25:00,
2013-07-18 14:30:00,88.2,72.5,30.02,SE,135,0.0,0.0,60,0.00,,,0.00,meteohub,2013-07-18 19:30:00,
2013-07-18 14:35:00,88.2,72.5,30.01,West,270,0.0,0.0,60,0.00,,,0.00,meteohub,2013-07-18 19:35:00,
2013-07-18 14:40:00,88.7,73.0,30.01,SSE,158,0.0,0.0,60,0.00,,,0.00,meteohub,2013-07-18 19:40:00,
2013-07-18 14:45:00,88.7,72.0,30.01,SW,225,0.0,0.0,58,0.00,,,0.00,meteohub,2013-07-18 19:45:00,
2013-07-18 14:50:00,88.9,72.1,30.01,SW,225,0.0,0.0,58,0.00,,,0.00,meteohub,2013-07-18 19:50:00,
2013-07-18 14:56:00,88.9,72.1,30.00,SE,135,0.0,0.0,58,0.00,,,0.00,meteohub,2013-07-18 19:56:00,
2013-07-18 15:01:00,89.1,72.3,30.00,SW,225,0.0,0.0,58,0.00,,,0.00,meteohub,2013-07-18 20:01:00,
2013-07-18 15:06:00,89.1,72.3,30.00,SW,225,0.0,0.0,58,0.00,,,0.00,meteohub,2013-07-18 20:06:00,
2013-07-18 15:11:00,89.1,72.3,30.00,SW,225,0.0,0.0,58,0.00,,,0.00,meteohub,2013-07-18 20:11:00,
2013-07-18 15:16:00,89.8,73.0,29.99,SSW,203,0.0,0.0,58,0.00,,,0.00,meteohub,2013-07-18 20:16:00,
2013-07-18 15:21:00,90.0,73.8,29.99,SSW,203,0.0,0.0,59,0.00,,,0.00,meteohub,2013-07-18 20:21:00,
2013-07-18 15:26:00,90.1,73.4,29.99,SSW,203,0.0,0.0,58,0.00,,,0.00,meteohub,2013-07-18 20:26:00,
2013-07-18 15:31:00,90.3,73.6,29.99,SSW,203,0.0,0.0,58,0.00,,,0.00,meteohub,2013-07-18 20:31:00,
2013-07-18 15:36:00,90.3,73.0,29.98,North,-999,-999.0,0.0,57,0.00,,,0.00,meteohub,2013-07-18 20:36:00,
2013-07-18 15:41:00,90.5,73.2,29.98,North,-999,-999.0,0.0,57,0.00,,,0.00,meteohub,2013-07-18 20:41:00,
2013-07-18 15:46:00,90.5,73.8,29.98,North,-999,-999.0,0.0,58,0.00,,,0.00,meteohub,2013-07-18 20:46:00,
2013-07-18 15:51:00,90.7,73.4,29.98,North,-999,-999.0,-999.0,57,0.00,,,0.00,meteohub,2013-07-18 20:51:00,
2013-07-18 15:56:00,90.9,73.6,29.97,North,-999,-999.0,-999.0,57,0.00,,,0.00,meteohub,2013-07-18 20:56:00,
2013-07-18 16:01:00,91.0,73.8,29.97,North,-999,-999.0,-999.0,57,0.00,,,0.00,meteohub,2013-07-18 21:01:00,
2013-07-18 16:06:00,91.0,72.7,29.97,North,-999,-999.0,-999.0,55,0.00,,,0.00,meteohub,2013-07-18 21:06:00,
2013-07-18 16:11:00,91.2,73.4,29.97,North,-999,-999.0,-999.0,56,0.00,,,0.00,meteohub,2013-07-18 21:11:00,
2013-07-18 16:16:00,91.2,73.8,29.97,North,-999,-999.0,-999.0,57,0.00,,,0.00,meteohub,2013-07-18 21:16:00,
2013-07-18 16:21:00,91.2,73.8,29.97,North,-999,-999.0,-999.0,57,0.00,,,0.00,meteohub,2013-07-18 21:21:00,
2013-07-18 16:26:00,91.6,74.1,29.97,North,-999,-999.0,-999.0,57,0.00,,,0.00,meteohub,2013-07-18 21:26:00,
2013-07-18 16:31:00,91.8,73.2,29.97,North,-999,-999.0,-999.0,55,0.00,,,0.00,meteohub,2013-07-18 21:31:00,
2013-07-18 16:36:00,91.6,73.6,29.96,North,-999,-999.0,-999.0,56,0.00,,,0.00,meteohub,2013-07-18 21:36:00,
2013-07-18 16:41:00,91.6,73.6,29.96,North,-999,-999.0,-999.0,56,0.00,,,0.00,meteohub,2013-07-18 21:41:00,
2013-07-18 16:46:00,91.6,74.1,29.96,North,-999,-999.0,-999.0,57,0.00,,,0.00,meteohub,2013-07-18 21:46:00,
2013-07-18 16:51:00,91.8,74.3,29.96,North,-999,-999.0,-999.0,57,0.00,,,0.00,meteohub,2013-07-18 21:51:00,
2013-07-18 16:56:00,91.9,73.9,29.95,North,-999,-999.0,-999.0,56,0.00,,,0.00,meteohub,2013-07-18 21:56:00,
2013-07-18 17:01:00,92.3,74.3,29.95,North,-999,-999.0,-999.0,56,0.00,,,0.00,meteohub,2013-07-18 22:01:00,
2013-07-18 17:06:00,92.7,74.7,29.95,North,-999,-999.0,-999.0,56,0.00,,,0.00,meteohub,2013-07-18 22:06:00,
2013-07-18 17:11:00,92.7,75.2,29.94,North,-999,-999.0,-999.0,57,0.00,,,0.00,meteohub,2013-07-18 22:11:00,
2013-07-18 17:16:00,92.8,74.8,29.94,North,-999,-999.0,-999.0,56,0.00,,,0.00,meteohub,2013-07-18 22:16:00,
2013-07-18 17:21:00,93.2,75.2,29.94,North,-999,-999.0,-999.0,56,0.00,,,0.00,meteohub,2013-07-18 22:21:00,
2013-07-18 17:26:00,93.2,74.7,29.94,North,-999,-999.0,-999.0,55,0.00,,,0.00,meteohub,2013-07-18 22:26:00,
2013-07-18 17:31:00,93.6,75.0,29.94,North,-999,-999.0,-999.0,55,0.00,,,0.00,meteohub,2013-07-18 22:31:00,
2013-07-18 17:36:00,93.7,74.7,29.98,North,-999,-999.0,-999.0,54,0.00,,,0.00,meteohub,2013-07-18 22:36:00,
2013-07-18 17:41:00,93.7,74.7,29.98,North,-999,-999.0,-999.0,54,0.00,,,0.00,meteohub,2013-07-18 22:41:00,
2013-07-18 17:46:00,93.7,75.2,29.98,North,-999,-999.0,-999.0,55,0.00,,,0.00,meteohub,2013-07-18 22:46:00,
2013-07-18 17:51:00,93.7,75.2,29.98,North,-999,-999.0,-999.0,55,0.00,,,0.00,meteohub,2013-07-18 22:51:00,
2013-07-18 17:56:00,94.1,75.4,29.98,North,-999,-999.0,-999.0,55,0.00,,,0.00,meteohub,2013-07-18 22:56:00,
2013-07-18 18:01:00,94.1,75.4,29.98,North,-999,-999.0,-999.0,55,0.00,,,0.00,meteohub,2013-07-18 23:01:00,
2013-07-18 18:06:00,94.1,75.4,29.98,North,-999,-999.0,-999.0,55,0.00,,,0.00,meteohub,2013-07-18 23:06:00,
2013-07-18 18:11:00,94.1,75.4,29.98,North,-999,-999.0,-999.0,55,0.00,,,0.00,meteohub,2013-07-18 23:11:00,
2013-07-18 18:16:00,94.5,75.2,29.97,North,-999,-999.0,-999.0,54,0.00,,,0.00,meteohub,2013-07-18 23:16:00,
2013-07-18 18:21:00,94.1,74.3,29.97,North,-999,-999.0,-999.0,53,0.00,,,0.00,meteohub,2013-07-18 23:21:00,
2013-07-18 18:26:00,93.9,74.1,29.98,North,-999,-999.0,-999.0,53,0.00,,,0.00,meteohub,2013-07-18 23:26:00,
2013-07-18 18:31:00,93.7,75.2,29.97,North,-999,-999.0,-999.0,55,0.00,,,0.00,meteohub,2013-07-18 23:31:00,
2013-07-18 18:36:00,93.9,74.7,29.97,North,-999,-999.0,-999.0,54,0.00,,,0.00,meteohub,2013-07-18 23:36:00,
2013-07-18 18:41:00,93.7,75.2,29.97,North,-999,-999.0,-999.0,55,0.00,,,0.00,meteohub,2013-07-18 23:41:00,
2013-07-18 18:47:00,93.7,75.2,29.97,North,-999,-999.0,-999.0,55,0.00,,,0.00,meteohub,2013-07-18 23:47:00,
2013-07-18 18:52:00,93.7,75.2,29.97,North,-999,-999.0,-999.0,55,0.00,,,0.00,meteohub,2013-07-18 23:52:00,
2013-07-18 18:57:00,93.4,75.4,29.97,North,-999,-999.0,-999.0,56,0.00,,,0.00,meteohub,2013-07-18 23:57:00,
2013-07-18 19:02:00,93.4,75.4,29.97,North,-999,-999.0,-999.0,56,0.00,,,0.00,meteohub,2013-07-19 00:02:00,
2013-07-18 19:07:00,93.2,75.2,29.97,North,-999,-999.0,-999.0,56,0.00,,,0.00,meteohub,2013-07-19 00:07:00,
2013-07-18 19:12:00,93.2,75.2,29.96,North,-999,-999.0,-999.0,56,0.00,,,0.00,meteohub,2013-07-19 00:12:00,
2013-07-18 19:17:00,93.0,75.6,29.96,North,-999,-999.0,-999.0,57,0.00,,,0.00,meteohub,2013-07-19 00:17:00,
2013-07-18 19:22:00,93.0,75.6,29.96,North,-999,-999.0,-999.0,57,0.00,,,0.00,meteohub,2013-07-19 00:22:00,
2013-07-18 19:27:00,93.0,75.0,29.96,North,-999,-999.0,-999.0,56,0.00,,,0.00,meteohub,2013-07-19 00:27:00,
2013-07-18 19:32:00,93.0,75.6,29.94,North,-999,-999.0,-999.0,57,0.00,,,0.00,meteohub,2013-07-19 00:32:00,
2013-07-18 19:37:00,93.0,76.1,29.94,North,-999,-999.0,-999.0,58,0.00,,,0.00,meteohub,2013-07-19 00:37:00,
2013-07-18 19:42:00,92.7,75.7,29.94,North,-999,-999.0,-999.0,58,0.00,,,0.00,meteohub,2013-07-19 00:42:00,
2013-07-18 19:47:00,92.5,75.6,29.94,North,-999,-999.0,-999.0,58,0.00,,,0.00,meteohub,2013-07-19 00:47:00,
2013-07-18 19:52:00,91.8,76.5,29.93,North,-999,-999.0,-999.0,61,0.00,,,0.00,meteohub,2013-07-19 00:52:00,
2013-07-18 19:57:00,91.2,76.3,29.93,North,-999,-999.0,-999.0,62,0.00,,,0.00,meteohub,2013-07-19 00:57:00,
2013-07-18 20:02:00,90.3,75.9,29.94,North,-999,-999.0,-999.0,63,0.00,,,0.00,meteohub,2013-07-19 01:02:00,
2013-07-18 20:07:00,89.8,75.9,29.94,North,-999,-999.0,-999.0,64,0.00,,,0.00,meteohub,2013-07-19 01:07:00,
2013-07-18 20:12:00,88.9,74.7,29.94,North,-999,-999.0,-999.0,63,0.00,,,0.00,meteohub,2013-07-19 01:12:00,
2013-07-18 20:17:00,88.3,74.1,29.94,North,-999,-999.0,-999.0,63,0.00,,,0.00,meteohub,2013-07-19 01:17:00,
2013-07-18 20:22:00,87.6,74.3,29.94,North,-999,-999.0,-999.0,65,0.00,,,0.00,meteohub,2013-07-19 01:22:00,
2013-07-18 20:27:00,86.9,74.1,29.95,North,-999,-999.0,-999.0,66,0.00,,,0.00,meteohub,2013-07-19 01:27:00,
2013-07-18 20:32:00,86.5,74.7,29.95,North,-999,-999.0,-999.0,68,0.00,,,0.00,meteohub,2013-07-19 01:32:00,
2013-07-18 20:37:00,85.8,73.6,29.95,North,-999,-999.0,-999.0,67,0.00,,,0.00,meteohub,2013-07-19 01:37:00,
2013-07-18 20:42:00,85.3,73.6,29.95,North,-999,-999.0,-999.0,68,0.00,,,0.00,meteohub,2013-07-19 01:42:00,
2013-07-18 20:47:00,85.1,73.4,29.95,North,-999,-999.0,-999.0,68,0.00,,,0.00,meteohub,2013-07-19 01:47:00,
2013-07-18 20:52:00,84.6,72.9,29.96,ESE,113,0.0,-999.0,68,0.00,,,0.00,meteohub,2013-07-19 01:52:00,
2013-07-18 20:57:00,84.4,72.1,29.96,ESE,113,0.0,0.0,67,0.00,,,0.00,meteohub,2013-07-19 01:57:00,
2013-07-18 21:02:00,84.4,71.8,29.96,ESE,113,3.0,0.0,66,0.00,,,0.00,meteohub,2013-07-19 02:02:00,
2013-07-18 21:07:00,84.4,70.9,29.96,ESE,113,0.0,3.0,64,0.00,,,0.00,meteohub,2013-07-19 02:07:00,
2013-07-18 21:12:00,84.7,70.7,29.98,ESE,113,0.0,3.0,63,0.00,,,0.00,meteohub,2013-07-19 02:12:00,
2013-07-18 21:17:00,84.6,70.5,29.98,ESE,113,0.0,3.0,63,0.00,,,0.00,meteohub,2013-07-19 02:17:00,
2013-07-18 21:22:00,84.4,70.3,29.98,East,90,0.0,0.0,63,0.00,,,0.00,meteohub,2013-07-19 02:22:00,
2013-07-18 21:27:00,84.4,70.3,29.98,SE,135,0.0,0.0,63,0.00,,,0.00,meteohub,2013-07-19 02:27:00,
2013-07-18 21:32:00,83.8,70.0,30.01,SE,135,0.0,0.0,63,0.00,,,0.00,meteohub,2013-07-19 02:32:00,
2013-07-18 21:37:00,83.8,70.3,30.01,East,90,0.0,0.0,64,0.00,,,0.00,meteohub,2013-07-19 02:37:00,
2013-07-18 21:42:00,83.5,70.0,30.01,SSW,203,0.0,0.0,64,0.00,,,0.00,meteohub,2013-07-19 02:42:00,
2013-07-18 21:47:00,83.3,69.8,30.01,SE,135,0.0,0.0,64,0.00,,,0.00,meteohub,2013-07-19 02:47:00,
2013-07-18 21:52:00,83.1,69.6,29.99,SE,135,0.0,0.0,64,0.00,,,0.00,meteohub,2013-07-19 02:52:00,
2013-07-18 21:57:00,82.8,69.8,29.99,ESE,113,0.0,0.0,65,0.00,,,0.00,meteohub,2013-07-19 02:57:00,
2013-07-18 22:02:00,82.6,70.0,29.99,SE,135,0.0,0.0,66,0.00,,,0.00,meteohub,2013-07-19 03:02:00,
2013-07-18 22:07:00,82.2,69.8,29.99,ESE,113,0.0,0.0,66,0.00,,,0.00,meteohub,2013-07-19 03:07:00,
2013-07-18 22:12:00,82.0,70.0,29.98,SE,135,0.0,0.0,67,0.00,,,0.00,meteohub,2013-07-19 03:12:00,
2013-07-18 22:17:00,81.7,70.5,29.98,SE,135,0.0,0.0,69,0.00,,,0.00,meteohub,2013-07-19 03:17:00,
2013-07-18 22:23:00,81.5,70.3,29.98,SE,135,0.0,0.0,69,0.00,,,0.00,meteohub,2013-07-19 03:23:00,
2013-07-18 22:28:00,81.1,70.3,29.98,South,180,0.0,0.0,70,0.00,,,0.00,meteohub,2013-07-19 03:28:00,
2013-07-18 22:33:00,81.0,70.2,29.97,SSE,158,0.0,0.0,70,0.00,,,0.00,meteohub,2013-07-19 03:33:00,
2013-07-18 22:38:00,80.8,69.6,29.97,SE,135,0.0,0.0,69,0.00,,,0.00,meteohub,2013-07-19 03:38:00,
2013-07-18 22:44:00,80.4,69.3,29.97,ESE,113,0.0,0.0,69,0.00,,,0.00,meteohub,2013-07-19 03:44:00,
2013-07-18 22:49:00,80.2,69.6,29.97,SE,135,0.0,0.0,70,0.00,,,0.00,meteohub,2013-07-19 03:49:00,
2013-07-18 22:54:00,80.1,69.8,29.97,ESE,113,0.0,0.0,71,0.00,,,0.00,meteohub,2013-07-19 03:54:00,
2013-07-18 22:59:00,79.9,69.6,29.97,ESE,113,0.0,0.0,71,0.00,,,0.00,meteohub,2013-07-19 03:59:00,
2013-07-18 23:01:00,79.7,69.4,29.97,ESE,113,0.0,0.0,71,0.00,,,0.00,meteohub,2013-07-19 04:01:00,
2013-07-18 23:02:00,79.7,69.4,29.97,ESE,113,0.0,0.0,71,0.00,,,0.00,meteohub,2013-07-19 04:02:00,
2013-07-18 23:07:00,79.5,69.3,29.97,ESE,113,0.0,0.0,71,0.00,,,0.00,meteohub,2013-07-19 04:07:00,
2013-07-18 23:12:00,79.5,69.6,29.98,ESE,113,0.0,0.0,72,0.00,,,0.00,meteohub,2013-07-19 04:12:00,
2013-07-18 23:17:00,79.3,69.4,29.98,ESE,113,0.0,0.0,72,0.00,,,0.00,meteohub,2013-07-19 04:17:00,
2013-07-18 23:22:00,78.8,69.4,29.98,ESE,113,0.0,0.0,73,0.00,,,0.00,meteohub,2013-07-19 04:22:00,
2013-07-18 23:27:00,78.6,69.3,29.98,SSE,158,0.0,0.0,73,0.00,,,0.00,meteohub,2013-07-19 04:27:00,
2013-07-18 23:32:00,78.3,69.3,29.96,ESE,113,0.0,0.0,74,0.00,,,0.00,meteohub,2013-07-19 04:32:00,
2013-07-18 23:37:00,78.1,69.1,29.96,ESE,113,0.0,0.0,74,0.00,,,0.00,meteohub,2013-07-19 04:37:00,
2013-07-18 23:42:00,78.1,69.4,29.96,ESE,113,0.0,0.0,75,0.00,,,0.00,meteohub,2013-07-19 04:42:00,
2013-07-18 23:47:00,77.9,69.3,29.96,ESE,113,0.0,0.0,75,0.00,,,0.00,meteohub,2013-07-19 04:47:00,
2013-07-18 23:52:00,77.5,68.9,29.97,ESE,113,0.0,0.0,75,0.00,,,0.00,meteohub,2013-07-19 04:52:00,
2013-07-18 23:57:00,77.5,69.4,29.97,ESE,113,0.0,0.0,76,0.00,,,0.00,meteohub,2013-07-19 04:57:00,